Time,TemperatureF,DewpointF,PressureIn,WindDirection,WindDirectionDegrees,WindSpeedMPH,WindSpeedGustMPH,Humidity,HourlyPrecipIn,Conditions,Clouds,dailyrainin,SolarRadiationWatts/m^2,SoftwareType,DateUTC
2013-02-23 00:01:00,72.0,57.0,-100.00,NNE,12,11.0,18.0,60,0.00,,,0.87,0.000000,,2013-02-23 10:01:00,
2013-02-23 00:11:00,72.0,57.0,-100.00,NNE,12,11.0,18.0,60,0.00,,,0.87,0.000000,,2013-02-23 10:11:00,
2013-02-23 00:21:00,72.0,57.0,-100.00,NNE,12,11.0,18.0,60,0.00,,,0.87,0.000000,,2013-02-23 10:21:00,
2013-02-23 00:31:00,72.0,57.0,-100.00,NNE,12,11.0,18.0,60,0.00,,,0.87,0.000000,,2013-02-23 10:31:00,
2013-02-23 00:41:00,72.0,57.0,-100.00,NNE,12,11.0,18.0,60,0.00,,,0.87,0.000000,,2013-02-23 10:41:00,
2013-02-23 01:02:00,70.0,56.0,-100.00,NNE,15,11.0,17.0,61,0.00,,,0.55,0.000000,,2013-02-23 11:02:00,
2013-02-23 01:11:00,70.0,56.0,-100.00,NNE,15,11.0,17.0,61,0.00,,,0.55,0.000000,,2013-02-23 11:11:00,
2013-02-23 01:21:00,70.0,56.0,-100.00,NNE,15,11.0,17.0,61,0.00,,,0.55,0.000000,,2013-02-23 11:21:00,
2013-02-23 01:32:00,70.0,56.0,-100.00,NNE,15,11.0,17.0,61,0.00,,,0.55,0.000000,,2013-02-23 11:32:00,
2013-02-23 01:41:00,70.0,56.0,-100.00,NNE,15,11.0,17.0,61,0.00,,,0.55,0.000000,,2013-02-23 11:41:00,
2013-02-23 02:01:00,72.0,58.0,-100.00,North,8,11.0,21.0,61,0.00,,,0.42,0.000000,,2013-02-23 12:01:00,
2013-02-23 02:11:00,72.0,58.0,-100.00,North,8,11.0,21.0,61,0.00,,,0.42,0.000000,,2013-02-23 12:11:00,
2013-02-23 02:21:00,72.0,58.0,-100.00,North,8,11.0,21.0,61,0.00,,,0.42,0.000000,,2013-02-23 12:21:00,
2013-02-23 02:32:00,72.0,58.0,-100.00,North,8,11.0,21.0,61,0.00,,,0.42,0.000000,,2013-02-23 12:32:00,
2013-02-23 02:41:00,72.0,58.0,-100.00,North,8,11.0,21.0,61,0.00,,,0.42,0.000000,,2013-02-23 12:41:00,
2013-02-23 03:01:00,72.0,59.0,-100.00,NE,37,9.0,17.0,63,0.00,,,0.15,0.000000,,2013-02-23 13:01:00,
2013-02-23 03:11:00,72.0,59.0,-100.00,NE,37,9.0,17.0,63,0.00,,,0.15,0.000000,,2013-02-23 13:11:00,
2013-02-23 03:22:00,72.0,59.0,-100.00,NE,37,9.0,17.0,63,0.00,,,0.15,0.000000,,2013-02-23 13:22:00,
2013-02-23 03:31:00,72.0,59.0,-100.00,NE,37,9.0,17.0,63,0.00,,,0.15,0.000000,,2013-02-23 13:31:00,
2013-02-23 03:42:00,72.0,59.0,-100.00,NE,37,9.0,17.0,63,0.00,,,0.15,0.000000,,2013-02-23 13:42:00,
2013-02-23 04:02:00,70.0,56.0,-100.00,North,356,13.0,22.0,61,0.00,,,0.12,0.000000,,2013-02-23 14:02:00,
2013-02-23 04:11:00,70.0,56.0,-100.00,North,356,13.0,22.0,61,0.00,,,0.12,0.000000,,2013-02-23 14:11:00,
2013-02-23 04:21:00,70.0,56.0,-100.00,North,356,13.0,22.0,61,0.00,,,0.12,0.000000,,2013-02-23 14:21:00,
2013-02-23 04:32:00,70.0,56.0,-100.00,North,356,13.0,22.0,61,0.00,,,0.12,0.000000,,2013-02-23 14:32:00,
2013-02-23 04:41:00,70.0,56.0,-100.00,North,356,13.0,22.0,61,0.00,,,0.12,0.000000,,2013-02-23 14:41:00,
2013-02-23 05:11:00,67.0,55.0,-100.00,NE,37,10.0,21.0,65,0.01,,,0.13,0.000000,,2013-02-23 15:11:00,
2013-02-23 05:21:00,67.0,55.0,-100.00,NE,37,10.0,21.0,65,0.01,,,0.13,0.000000,,2013-02-23 15:21:00,
2013-02-23 05:31:00,67.0,55.0,-100.00,NE,37,10.0,21.0,65,0.01,,,0.13,0.000000,,2013-02-23 15:31:00,
2013-02-23 05:41:00,67.0,55.0,-100.00,NE,37,10.0,21.0,65,0.01,,,0.13,0.000000,,2013-02-23 15:41:00,
2013-02-23 06:11:00,68.0,60.0,-100.00,NNE,32,8.0,16.0,76,0.00,,,0.12,0.000000,,2013-02-23 16:11:00,
2013-02-23 06:21:00,68.0,60.0,-100.00,NNE,32,8.0,16.0,76,0.00,,,0.12,0.000000,,2013-02-23 16:21:00,
2013-02-23 06:31:00,68.0,60.0,-100.00,NNE,32,8.0,16.0,76,0.00,,,0.12,0.000000,,2013-02-23 16:31:00,
2013-02-23 06:42:00,68.0,60.0,-100.00,NNE,32,8.0,16.0,76,0.00,,,0.12,0.000000,,2013-02-23 16:42:00,
2013-02-23 07:11:00,65.0,58.0,-100.00,East,81,13.0,24.0,77,0.07,,,0.19,0.000000,,2013-02-23 17:11:00,
2013-02-23 07:21:00,65.0,58.0,-100.00,East,81,13.0,24.0,77,0.07,,,0.19,0.000000,,2013-02-23 17:21:00,
2013-02-23 07:31:00,65.0,58.0,-100.00,East,81,13.0,24.0,77,0.07,,,0.19,0.000000,,2013-02-23 17:31:00,
2013-02-23 07:41:00,65.0,58.0,-100.00,East,81,13.0,24.0,77,0.07,,,0.19,0.000000,,2013-02-23 17:41:00,
2013-02-23 08:01:00,66.0,58.0,-100.00,ENE,74,13.0,19.0,76,0.07,,,0.26,6.000000,,2013-02-23 18:01:00,
2013-02-23 08:12:00,66.0,58.0,-100.00,ENE,74,13.0,19.0,76,0.07,,,0.26,6.000000,,2013-02-23 18:12:00,
2013-02-23 08:21:00,66.0,58.0,-100.00,ENE,74,13.0,19.0,76,0.07,,,0.26,6.000000,,2013-02-23 18:21:00,
2013-02-23 08:31:00,66.0,58.0,-100.00,ENE,74,13.0,19.0,76,0.07,,,0.26,6.000000,,2013-02-23 18:31:00,
2013-02-23 08:41:00,66.0,58.0,-100.00,ENE,74,13.0,19.0,76,0.07,,,0.26,6.000000,,2013-02-23 18:41:00,
2013-02-23 09:11:00,67.0,61.0,-100.00,NE,39,14.0,19.0,80,0.14,,,0.39,52.000000,,2013-02-23 19:11:00,
2013-02-23 09:21:00,67.0,61.0,-100.00,NE,39,14.0,19.0,80,0.14,,,0.39,52.000000,,2013-02-23 19:21:00,
2013-02-23 09:32:00,67.0,61.0,-100.00,NE,39,14.0,19.0,80,0.14,,,0.39,52.000000,,2013-02-23 19:32:00,
2013-02-23 09:41:00,67.0,61.0,-100.00,NE,39,14.0,19.0,80,0.14,,,0.39,52.000000,,2013-02-23 19:41:00,
2013-02-23 10:11:00,70.0,60.0,-100.00,NE,37,13.0,20.0,70,0.00,,,0.35,243.000000,,2013-02-23 20:11:00,
2013-02-23 10:21:00,70.0,60.0,-100.00,NE,37,13.0,20.0,70,0.00,,,0.35,243.000000,,2013-02-23 20:21:00,
2013-02-23 10:31:00,70.0,60.0,-100.00,NE,37,13.0,20.0,70,0.00,,,0.35,243.000000,,2013-02-23 20:31:00,
2013-02-23 10:41:00,70.0,60.0,-100.00,NE,37,13.0,20.0,70,0.00,,,0.35,243.000000,,2013-02-23 20:41:00,
2013-02-23 11:01:00,71.0,60.0,-100.00,NE,43,13.0,26.0,69,0.02,,,0.33,284.000000,,2013-02-23 21:01:00,
2013-02-23 11:11:00,71.0,60.0,-100.00,NE,43,13.0,26.0,69,0.02,,,0.33,284.000000,,2013-02-23 21:11:00,
2013-02-23 11:22:00,71.0,60.0,-100.00,NE,43,13.0,26.0,69,0.02,,,0.33,284.000000,,2013-02-23 21:22:00,
2013-02-23 11:31:00,71.0,60.0,-100.00,NE,43,13.0,26.0,69,0.02,,,0.33,284.000000,,2013-02-23 21:31:00,
2013-02-23 11:41:00,71.0,60.0,-100.00,NE,43,13.0,26.0,69,0.02,,,0.33,284.000000,,2013-02-23 21:41:00,
2013-02-23 12:01:00,73.0,59.0,-100.00,ENE,57,10.0,21.0,62,0.00,,,0.32,541.000000,,2013-02-23 22:01:00,
2013-02-23 12:11:00,73.0,59.0,-100.00,ENE,57,10.0,21.0,62,0.00,,,0.32,541.000000,,2013-02-23 22:11:00,
2013-02-23 12:21:00,73.0,59.0,-100.00,ENE,57,10.0,21.0,62,0.00,,,0.32,541.000000,,2013-02-23 22:21:00,
2013-02-23 12:31:00,73.0,59.0,-100.00,ENE,57,10.0,21.0,62,0.00,,,0.32,541.000000,,2013-02-23 22:31:00,
2013-02-23 12:41:00,73.0,59.0,-100.00,ENE,57,10.0,21.0,62,0.00,,,0.32,541.000000,,2013-02-23 22:41:00,
2013-02-23 13:01:00,72.0,62.0,-100.00,NNE,21,14.0,22.0,72,0.14,,,0.46,474.000000,,2013-02-23 23:01:00,
2013-02-23 13:11:00,72.0,62.0,-100.00,NNE,21,14.0,22.0,72,0.14,,,0.46,474.000000,,2013-02-23 23:11:00,
2013-02-23 13:21:00,72.0,62.0,-100.00,NNE,21,14.0,22.0,72,0.14,,,0.46,474.000000,,2013-02-23 23:21:00,
2013-02-23 13:31:00,72.0,62.0,-100.00,NNE,21,14.0,22.0,72,0.14,,,0.46,474.000000,,2013-02-23 23:31:00,
2013-02-23 13:41:00,72.0,62.0,-100.00,NNE,21,14.0,22.0,72,0.14,,,0.46,474.000000,,2013-02-23 23:41:00,
2013-02-23 14:01:00,71.0,60.0,-100.00,NE,52,14.0,22.0,69,0.00,,,0.46,920.000000,,2013-02-24 00:01:00,
2013-02-23 14:11:00,71.0,60.0,-100.00,NE,52,14.0,22.0,69,0.00,,,0.46,920.000000,,2013-02-24 00:11:00,
2013-02-23 14:22:00,71.0,60.0,-100.00,NE,52,14.0,22.0,69,0.00,,,0.46,920.000000,,2013-02-24 00:22:00,
2013-02-23 14:31:00,71.0,60.0,-100.00,NE,52,14.0,22.0,69,0.00,,,0.46,920.000000,,2013-02-24 00:31:00,
2013-02-23 14:42:00,71.0,60.0,-100.00,NE,52,14.0,22.0,69,0.00,,,0.46,920.000000,,2013-02-24 00:42:00,
2013-02-23 15:01:00,74.0,61.0,-100.00,NE,55,11.0,22.0,63,0.00,,,0.46,657.000000,,2013-02-24 01:01:00,
2013-02-23 15:11:00,74.0,61.0,-100.00,NE,55,11.0,22.0,63,0.00,,,0.46,657.000000,,2013-02-24 01:11:00,
2013-02-23 15:22:00,74.0,61.0,-100.00,NE,55,11.0,22.0,63,0.00,,,0.46,657.000000,,2013-02-24 01:22:00,
2013-02-23 15:31:00,74.0,61.0,-100.00,NE,55,11.0,22.0,63,0.00,,,0.46,657.000000,,2013-02-24 01:31:00,
2013-02-23 15:41:00,74.0,61.0,-100.00,NE,55,11.0,22.0,63,0.00,,,0.46,657.000000,,2013-02-24 01:41:00,
2013-02-23 16:01:00,75.0,61.0,-100.00,NE,44,14.0,24.0,62,0.00,,,0.46,347.000000,,2013-02-24 02:01:00,
2013-02-23 16:11:00,75.0,61.0,-100.00,NE,44,14.0,24.0,62,0.00,,,0.46,347.000000,,2013-02-24 02:11:00,
2013-02-23 16:21:00,75.0,61.0,-100.00,NE,44,14.0,24.0,62,0.00,,,0.46,347.000000,,2013-02-24 02:21:00,
2013-02-23 16:31:00,75.0,61.0,-100.00,NE,44,14.0,24.0,62,0.00,,,0.46,347.000000,,2013-02-24 02:31:00,
2013-02-23 16:41:00,75.0,61.0,-100.00,NE,44,14.0,24.0,62,0.00,,,0.46,347.000000,,2013-02-24 02:41:00,
2013-02-23 17:01:00,73.0,60.0,-100.00,NE,54,14.0,20.0,63,0.00,,,0.46,274.000000,,2013-02-24 03:01:00,
2013-02-23 17:11:00,73.0,60.0,-100.00,NE,54,14.0,20.0,63,0.00,,,0.46,274.000000,,2013-02-24 03:11:00,
2013-02-23 17:21:00,73.0,60.0,-100.00,NE,54,14.0,20.0,63,0.00,,,0.46,274.000000,,2013-02-24 03:21:00,
2013-02-23 17:31:00,73.0,60.0,-100.00,NE,54,14.0,20.0,63,0.00,,,0.46,274.000000,,2013-02-24 03:31:00,
2013-02-23 17:42:00,73.0,60.0,-100.00,NE,54,14.0,20.0,63,0.00,,,0.46,274.000000,,2013-02-24 03:42:00,
2013-02-23 18:01:00,69.0,59.0,-100.00,NE,35,11.0,21.0,71,0.02,,,0.48,83.000000,,2013-02-24 04:01:00,
2013-02-23 18:11:00,69.0,59.0,-100.00,NE,35,11.0,21.0,71,0.02,,,0.48,83.000000,,2013-02-24 04:11:00,
2013-02-23 18:21:00,69.0,59.0,-100.00,NE,35,11.0,21.0,71,0.02,,,0.48,83.000000,,2013-02-24 04:21:00,
2013-02-23 18:31:00,69.0,59.0,-100.00,NE,35,11.0,21.0,71,0.02,,,0.48,83.000000,,2013-02-24 04:31:00,
2013-02-23 18:41:00,69.0,59.0,-100.00,NE,35,11.0,21.0,71,0.02,,,0.48,83.000000,,2013-02-24 04:41:00,
2013-02-23 19:01:00,69.0,58.0,-100.00,NE,39,11.0,19.0,69,0.00,,,0.48,15.000000,,2013-02-24 05:01:00,
2013-02-23 19:11:00,69.0,58.0,-100.00,NE,39,11.0,19.0,69,0.00,,,0.48,15.000000,,2013-02-24 05:11:00,
2013-02-23 19:21:00,69.0,58.0,-100.00,NE,39,11.0,19.0,69,0.00,,,0.48,15.000000,,2013-02-24 05:21:00,
2013-02-23 19:32:00,69.0,58.0,-100.00,NE,39,11.0,19.0,69,0.00,,,0.48,15.000000,,2013-02-24 05:32:00,
2013-02-23 19:41:00,69.0,58.0,-100.00,NE,39,11.0,19.0,69,0.00,,,0.48,15.000000,,2013-02-24 05:41:00,
2013-02-23 20:01:00,68.0,58.0,-100.00,NNE,24,13.0,19.0,70,0.01,,,0.49,0.000000,,2013-02-24 06:01:00,
2013-02-23 20:11:00,68.0,58.0,-100.00,NNE,24,13.0,19.0,70,0.01,,,0.49,0.000000,,2013-02-24 06:11:00,
2013-02-23 20:21:00,68.0,58.0,-100.00,NNE,24,13.0,19.0,70,0.01,,,0.49,0.000000,,2013-02-24 06:21:00,
2013-02-23 20:31:00,68.0,58.0,-100.00,NNE,24,13.0,19.0,70,0.01,,,0.49,0.000000,,2013-02-24 06:31:00,
2013-02-23 20:41:00,68.0,58.0,-100.00,NNE,24,13.0,19.0,70,0.01,,,0.49,0.000000,,2013-02-24 06:41:00,
2013-02-23 21:01:00,68.0,60.0,-100.00,NE,52,14.0,19.0,76,0.05,,,0.53,0.000000,,2013-02-24 07:01:00,
2013-02-23 21:11:00,68.0,60.0,-100.00,NE,52,14.0,19.0,76,0.05,,,0.53,0.000000,,2013-02-24 07:11:00,
2013-02-23 21:21:00,68.0,60.0,-100.00,NE,52,14.0,19.0,76,0.05,,,0.53,0.000000,,2013-02-24 07:21:00,
2013-02-23 21:31:00,68.0,60.0,-100.00,NE,52,14.0,19.0,76,0.05,,,0.53,0.000000,,2013-02-24 07:31:00,
2013-02-23 21:41:00,68.0,60.0,-100.00,NE,52,14.0,19.0,76,0.05,,,0.53,0.000000,,2013-02-24 07:41:00,
2013-02-23 22:01:00,70.0,61.0,-100.00,NE,38,9.0,23.0,73,0.00,,,0.53,0.000000,,2013-02-24 08:01:00,
2013-02-23 22:11:00,70.0,61.0,-100.00,NE,38,9.0,23.0,73,0.00,,,0.53,0.000000,,2013-02-24 08:11:00,
2013-02-23 22:22:00,70.0,61.0,-100.00,NE,38,9.0,23.0,73,0.00,,,0.53,0.000000,,2013-02-24 08:22:00,
2013-02-23 22:31:00,70.0,61.0,-100.00,NE,38,9.0,23.0,73,0.00,,,0.53,0.000000,,2013-02-24 08:31:00,
2013-02-23 22:41:00,70.0,61.0,-100.00,NE,38,9.0,23.0,73,0.00,,,0.53,0.000000,,2013-02-24 08:41:00,
2013-02-23 23:01:00,70.0,59.0,-100.00,NE,35,11.0,17.0,69,0.00,,,0.53,0.000000,,2013-02-24 09:01:00,
2013-02-23 23:11:00,70.0,59.0,-100.00,NE,35,11.0,17.0,69,0.00,,,0.53,0.000000,,2013-02-24 09:11:00,
2013-02-23 23:21:00,70.0,59.0,-100.00,NE,35,11.0,17.0,69,0.00,,,0.53,0.000000,,2013-02-24 09:21:00,
2013-02-23 23:31:00,70.0,59.0,-100.00,NE,35,11.0,17.0,69,0.00,,,0.53,0.000000,,2013-02-24 09:31:00,
2013-02-23 23:41:00,70.0,59.0,-100.00,NE,35,11.0,17.0,69,0.00,,,0.53,0.000000,,2013-02-24 09:41:00,